Weather History for Farmington, NM

Change the Weather History Date:

Wednesday, March 6, 2013

  Actual Average Record
Temperature  
Mean Temperature 47 °F -  
Max Temperature 64 °F 52 °F 69 °F (2006)
Min Temperature 30 °F 25 °F 17 °F (2008)
Degree Days  
Heating Degree Days 18    
Moisture  
Dew Point 15 °F    
Average Humidity 28    
Maximum Humidity 50    
Minimum Humidity 6    
Precipitation  
Precipitation 0.00 in - - ()
Sea Level Pressure  
Sea Level Pressure 30.01 in    
Wind  
Wind Speed 6 mph (East)    
Max Wind Speed 10 mph    
Max Gust Speed 18 mph    
Visibility 10 miles    
Events      
Averages and records for this station are not official NWS values.
T = Trace of Precipitation, MM = Missing Value Source: NWS Daily Summary

Daily Weather History Graph

Daily Weather History Graph

Search for Another Location

Airport:

Trip Planner

Search our weather history database for the weather conditions in past years. The results will help you decide how hot, cold, wet, or windy it might be!

Date:

Astronomy

Mar. 06, 2013 Rise Set
Actual Time 6:36 AM MST 6:12 PM MST
Civil Twilight 6:10 AM MST 6:38 PM MST
Nautical Twilight 5:40 AM MST 7:08 PM MST
Astronomical Twilight 5:10 AM MST 7:38 PM MST
Moon 2:41 AM MST (3/6) 1:03 PM MST (3/6)
Length of Visible Light 12h 27m
Length of Day
11h 36m
Waning Crescent, 29% of the Moon is Illuminated
Mar 6
Waning Crescent
Mar 11
New
Mar 19
First Quarter
Mar 27
Full
Apr 2
Last Quarter

Hourly Weather History & Observations

Time (MST) Temp. Windchill Dew Point Humidity Pressure Visibility Wind Dir Wind Speed Gust Speed Precip Events Conditions
12:53 AM 37.9 °F 32.7 °F 15.1 °F 39% 30.13 in 10.0 mi East 6.9 mph - N/A   Clear
1:53 AM 37.0 °F 31.6 °F 15.1 °F 41% 30.11 in 10.0 mi ENE 6.9 mph - N/A   Clear
2:53 AM 37.9 °F 31.5 °F 15.1 °F 39% 30.07 in 10.0 mi East 9.2 mph - N/A   Clear
3:53 AM 35.1 °F 29.3 °F 15.1 °F 44% 30.07 in 10.0 mi East 6.9 mph - N/A   Clear
4:53 AM 34.0 °F 26.0 °F 16.0 °F 48% 30.07 in 10.0 mi ESE 10.4 mph - N/A   Clear
5:53 AM 34.0 °F 27.2 °F 16.0 °F 48% 30.09 in 10.0 mi ESE 8.1 mph - N/A   Clear
6:53 AM 32.0 °F 24.8 °F 15.1 °F 50% 30.13 in 10.0 mi ESE 8.1 mph - N/A   Clear
7:53 AM 37.0 °F 31.0 °F 16.0 °F 42% 30.14 in 10.0 mi ESE 8.1 mph - N/A   Clear
8:53 AM 43.0 °F 38.8 °F 18.0 °F 37% 30.12 in 10.0 mi ESE 6.9 mph - N/A   Clear
9:53 AM 51.1 °F - 19.0 °F 28% 30.08 in 10.0 mi East 6.9 mph - N/A   Partly Cloudy
10:53 AM 53.1 °F - 19.9 °F 27% 30.04 in 10.0 mi ESE 4.6 mph - N/A   Partly Cloudy
11:53 AM 57.9 °F - 19.0 °F 22% 30.01 in 10.0 mi Calm Calm - N/A   Clear
12:53 PM 63.0 °F - 17.1 °F 17% 29.97 in 10.0 mi WNW 8.1 mph 18.4 mph N/A   Scattered Clouds
1:53 PM 61.0 °F - 16.0 °F 17% 29.94 in 10.0 mi ENE 3.5 mph - N/A   Clear
2:53 PM 62.1 °F - 15.1 °F 16% 29.91 in 10.0 mi Calm Calm - N/A   Clear
3:53 PM 64.9 °F - 15.1 °F 15% 29.90 in 10.0 mi NW 6.9 mph - N/A   Clear
4:53 PM 64.0 °F - 14.0 °F 14% 29.89 in 10.0 mi Variable 3.5 mph - N/A   Clear
5:53 PM 61.0 °F - 10.9 °F 14% 29.89 in 10.0 mi Calm Calm - N/A   Clear
6:53 PM 55.0 °F - 10.9 °F 17% 29.92 in 10.0 mi SSW 4.6 mph - N/A   Clear
7:53 PM 46.0 °F - 12.9 °F 26% 29.94 in 10.0 mi Calm Calm - N/A   Clear
8:53 PM 45.0 °F 40.1 °F 14.0 °F 29% 29.94 in 10.0 mi East 9.2 mph - N/A   Clear
9:53 PM 43.0 °F 38.2 °F 12.9 °F 30% 29.93 in 10.0 mi NNW 8.1 mph - N/A   Clear
10:53 PM 39.9 °F 35.8 °F 14.0 °F 35% 29.95 in 10.0 mi East 5.8 mph - N/A   Clear
11:53 PM 35.1 °F - 15.1 °F 44% 29.96 in 10.0 mi Calm Calm - N/A   Clear